Location: Invercargill
(46.4000°S, 168.3500°E)
Time: 03:29:25
(UTC+13:00)

Spot 2 Rocket - Pass Details

Date: 24 January 2019
Orbit: 758 x 772 km, 98.6° (Epoch: 18 February)

Event Time Altitude Azimuth Distance (km) Brightness Sun altitude
Rises 23:13:03 0° 165° (SSE) 3,287 7.3 -14.5°
Reaches altitude 10° 23:15:24 10° 163° (SSE) 2,351 6.5 -14.7°
Maximum altitude 23:20:36 76° 76° (ENE) 806 3.5 -15.3°
Enters shadow 23:25:11 13° 351° (N) 2,109 5.4 -15.8°
